Regional Weather Roundup
Issued by NWS

Home | Current Version | Previous Version | Text Only | Print | Product List | Glossary On
Versions: 1 2 3 4 5 6 7 8 9 10 11 12 13 14 15 16 17 18 19 20 21 22 23 24 25 26 27 28 29 30 31 32 33 34 35 36 37 38 39 40 41 42 43 44 45 46 47 48 49 50
000
ASUS43 KMPX 011701
RWRMN
WEATHER ROUNDUP FOR MINNESOTA
NATIONAL WEATHER SERVICE TWIN CITIES/CHANHASSEN MN
1200 PM CDT SAT AUG 01 2015


NOTE: "FAIR" INDICATES FEW OR NO CLOUDS BELOW 12,000 FEET WITH NO
SIGNIFICANT WEATHER AND/OR OBSTRUCTIONS TO VISIBILITY. N/A MEANS
CURRENT SKY AND/OR WEATHER CONDITIONS ARE NOT AVAILABLE.

MNZ060>063-068>070-011800-
   Twin Cities Metro

CITY           SKY/WX    TMP DP  RH WIND       PRES   REMARKS
TWIN CITIES    MOSUNNY   82  53  36 W9        29.96F
ST PAUL        SUNNY     81  57  43 VRB5      29.96F
CRYSTAL        SUNNY     82  53  36 NW8       29.95S
BLAINE         SUNNY     82  54  36 W7        29.96F
LAKEVILLE      SUNNY     81  55  41 W5        29.97F
EDEN PRAIRIE   SUNNY     81  62  52 S8        29.96F
SOUTH ST PAUL  SUNNY     80  55  42 CALM      29.96F
LAKE ELMO      FAIR      79  55  44 W5        29.98S
$$
MNZ001>005-007-008-013>017-022>024-027-028-011800-
   Northwest Minnesota

CITY           SKY/WX    TMP DP  RH WIND       PRES   REMARKS
BEMIDJI        SUNNY     76  51  40 W9        29.92F
HALLOCK        SUNNY     79  55  44 W7        29.86F
ROSEAU         SUNNY     77  57  50 SW12      29.86F
WARROAD        SUNNY     75  57  53 W8        29.86F
THIEF RVR FALL SUNNY     75  55  50 W8        29.90S
CROOKSTON      SUNNY     77  54  44 SW9       29.90F
FOSSTON        SUNNY     75  55  50 SW9       29.92F
DETROIT LAKES  SUNNY     77  52  41 SE6       29.95F
MOORHEAD       SUNNY     79  57  47 SE8       29.91F
PARK RAPIDS    SUNNY     79  51  37 W10       29.94F
MAHNOMEN       FAIR      75  56  50 SW7       29.94S
$$
MNZ006-009>011-018-025>026-011800-
   North Central Minnesota

CITY           SKY/WX    TMP DP  RH WIND       PRES   REMARKS
BAUDETTE       SUNNY     77  49  37 W12G17    29.86F
FLAG ISLAND    SUNNY     75  48  38 W10G22    29.82F
INTL FALLS     SUNNY     76  51  41 W13G21    29.86F
WASKISH        SUNNY     75  57  53 SW12      29.90S
BIG FORK       SUNNY     77  46  33 W5        29.91S
LONGVILLE      SUNNY     77  55  47 W7        29.94S
GRAND RAPIDS   SUNNY     75  48  38 W8        29.93S
CRANE LAKE     SUNNY     72  52  49 NW6       29.88F
ORR            SUNNY     77  45  31 NW7G17    29.86F
COOK           MOSUNNY   75  48  38 NW9G16    29.90S
WALKER         FAIR      75  54  47 W7        29.93F
$$
MNZ012-019>021-037-011800-
   Northeast Minnesota

CITY           SKY/WX    TMP DP  RH WIND       PRES   REMARKS
DULUTH         MOSUNNY   77  50  38 NW13G21   29.92S
ELY            MOSUNNY   72  48  43 NW14G20   29.89S
HIBBING        MOSUNNY   77  48  35 W8        29.91F
EVELETH        MOSUNNY   73  46  38 NW10G16   29.91F
DULUTH HARBOR  MOSUNNY   79  54  41 W14       29.90F
TWO HARBORS    MOSUNNY   79  59  50 W5        29.88F
SILVER BAY     MOSUNNY   77  50  38 W8        29.87F
GRAND MARAIS     N/A     77  53  43 VRB3      29.82F
G MARAIS ARPRT MOSUNNY   68  48  49 W6G17     29.88S
$$
MNZ029>031-032-039>041-046>048-054>057-064-011800-
   West Central Minnesota

CITY           SKY/WX    TMP DP  RH WIND       PRES   REMARKS
FERGUS FALLS   SUNNY     79  57  47 S3        29.92F
WHEATON        MOSUNNY   75  63  64 SE10      29.94F
MORRIS         MOSUNNY   77  63  61 SE7       29.94F
ALEXANDRIA     MOSUNNY   79  50  36 SW7       29.98F
ELBOW LAKE     FAIR      79  58  48 SE6       29.94F
WADENA         SUNNY     79  52  38 SW5       29.95F
GLENWOOD       SUNNY     81  55  41 SW7       29.98F
APPLETON       PTSUNNY   81  64  57 SE8       29.94F
BENSON         MOSUNNY   77  61  57 S5        29.95F
ORTONVILLE     MOSUNNY   79  64  61 SE7       29.94F
MADISON        PTSUNNY   79  66  65 SE7       29.95F
WILLMAR        FAIR      81  63  54 CALM      29.98F
$$
MNZ033>034-036-042>043-049>051-058-059-011800-
   Central Minnesota

CITY           SKY/WX    TMP DP  RH WIND       PRES   REMARKS
ST CLOUD       SUNNY     81  51  35 VRB3      29.96F
SAUK CENTRE    FAIR      78  51  39 W3        29.97F
PAYNESVILLE    SUNNY     77  53  43 E3        29.98S
AITKIN         SUNNY     79  55  44 CALM      29.93F
PINE RIVER     SUNNY     75  55  50 S7        29.97F
BRAINERD       SUNNY     78  50  37 W8        29.95F
STAPLES        SUNNY     79  52  38 W8        29.96F
LONG PRAIRIE   FAIR      77  54  44 SW6       29.98S
LITTLE FALLS   SUNNY     79  46  31 W7        29.96F
LITCHFIELD     SUNNY     81  59  47 CALM      29.98F
BUFFALO        SUNNY     78  53  41 CALM      29.98F
$$
MNZ037-044-045-052-053-011800-
   East Central Minnesota

CITY           SKY/WX    TMP DP  RH WIND       PRES   REMARKS
PRINCETON      SUNNY     81  52  36 W7        29.96F
MORA           SUNNY     77  52  41 NW8       29.97F
CAMBRIDGE      SUNNY     81  57  44 SW7       29.95S
RUSH CITY      SUNNY     78  55  44 W5        29.96S
MOOSE LAKE     MOSUNNY   77  52  41 W6        29.92F
HINCKLEY       FAIR      79  55  44 W6        29.95S
CLOQUET        SUNNY     77  45  31 NW14G20   29.93S
MCGREGOR       SUNNY     77  50  38 SW7       29.94F
$$
MNZ071>073-080-081-089-090-097-098-011800-
   Southwest Minnesota

CITY           SKY/WX    TMP DP  RH WIND       PRES   REMARKS
MONTEVIDEO     PTSUNNY   79  66  65 S6        29.98S
GRANITE FALLS  PTSUNNY   75  66  72 SE5       29.98S
CANBY          MOSUNNY   78  67  70 SE5       29.97F
MARSHALL       CLOUDY    81  68  65 S7        29.98F
REDWOOD FALLS  PTSUNNY   78  66  66 SE5       29.97F
OLIVIA         MOSUNNY   75  59  57 SE5       29.96F
PIPESTONE      MOSUNNY   81  68  65 SW12G17   30.00F
WINDOM         MOSUNNY   84  72  65 SW9G16    29.99F
WORTHINGTON    MOSUNNY   79  66  65 SW13G20   30.01F
JACKSON        MOSUNNY   81  68  65 SW8G16    30.01F
TRACY          PTSUNNY   81  72  74 SW8       29.98F
SLAYTON        MOSUNNY   82  67  60 SW13      30.01F
$$
MNZ065>067-074>077-082>085-091>093-011800-
   South Central Minnesota

CITY           SKY/WX    TMP DP  RH WIND       PRES   REMARKS
MANKATO        SUNNY     79  61  53 CALM      29.98F
NEW ULM        SUNNY     79  63  57 S3        29.97F
ST JAMES       SUNNY     82  68  61 CALM      29.99F
FAIRMONT       MOSUNNY   82  66  57 W5        29.99F
GLENCOE        SUNNY     80  64  57 CALM      29.97F
FARIBAULT      SUNNY     79  64  61 CALM      29.99F
OWATONNA       SUNNY     77  63  61 CALM      30.00S
WASECA         SUNNY     77  66  69 CALM      30.01S
ALBERT LEA     SUNNY     79  66  65 W3        30.00F
$$
MNZ078>079-086>088-094>096-011800-
   Southeast Minnesota

CITY           SKY/WX    TMP DP  RH WIND       PRES   REMARKS
ROCHESTER      MOSUNNY   77  66  68 W5        30.01S
RED WING       SUNNY     82  57  42 W6        29.96S
STANTON        SUNNY     79  59  50 CALM      29.97S
DODGE CENTER   SUNNY     75  66  73 W5        30.01S
WINONA         MOSUNNY   79  61  53 NW3       29.97S
AUSTIN         SUNNY     81  64  57 W7        30.00F
PRESTON        SUNNY     76  64  66 NW8       30.01S
$$
ABBREVIATIONS USED IN REMARKS
   TC - TEMPERATURES IN CELSIUS
  WCI - WIND CHILL INDEX
   HX - HEAT INDEX
  VSB - VISIBILITY
$$



USA.gov is the U.S. government's official web portal to all federal, state and local government web resources and services.